STARLINK-34300, 64218

Orbit data source: Space-Track

STARLINK-34300, 64218 is a payload satellite owned by SpaceX/Seattle (US) in LEO that was launched on Thu, 05 Jun 2025 UTC via an FALCON 9 launch vehicle from the Air Force Western Test Range (AFWTR). Payload-class satellites include a variety of spacecraft equipped with specific instruments for various scientific and technological missions. These include communications satellites like Starlink; space stations such as the ISS; scientific satellites like the Hubble; Earth observation satellites from companies like Planet Labs, Umbra, and HawkEye 360; GPS; miniature CubeSats for education and research; and military/defense satellites.

Loading next visibility...
Identifier
64218, 2025-117R
Orbit
LEO
Last TLE update
3 hours ago
Origin
Manufacturer
SpaceX/Seattle
Mission
Operational spacecraft
Bus & Motor
STARLINK V2MO, Unknown motor
Mass
575 kg wet, ~530 kg dry
Launch date (UTC)
2025-06-05 (2 weeks ago)
Launch vehicle
FALCON 9
Launch site
Air Force Western Test Range (AFWTR)
Object type
Payload
Rocket body
Debris
Shape & HBR
Unknown
Radar Cross Section
Large (>1 m²)

Expand to show TLE details & history

TLE from 3 hours ago
0 STARLINK-34300
1 64218U 25117R   25170.16670139 -.01555310  00000-0 -15409-1 0  9997
2 64218  53.1602 189.2307 0001232  88.2083 162.4936 15.68068283  3075
Epoch: 2025-06-19T04:00Z
TLE epoch observation values (Epoch: 2025-06-19T04:00:03Z)
Latitude
-49.23443°
Longitude
101.36303°
Altitude
382.151 km
Speed
7.68 km/s
True Right ascension
04h 36m 03s
True Declination
-49° 03' 17"
Sunlit
Object was in daylight at epoch
Visualization orbit readout
Latitude
-53.1475°
Longitude
137.23934°
Altitude
385.002 km
Speed
7.678 km/s
Apparent Right ascension
06h 27m 03s
Apparent Declination
-46° 46' 54"
Sunlit
Object is in daylight
Visualization observer readout
Local Sidereal Time
18:00:07
Azimuth
213.229° SW
Elevation
-81.574°
Doppler factor
1
Orbital elements
Apogee altitude
365.52 km
Perigee altitude
363.859 km
Semi-major axis
6,742.826 km
Eccentricity
0.00012
Inclination
53.1602°
RAAN
189.2307°
Arg. of periapsis
88.2083°
True anomaly
Unknown
Mean anomaly
162.4936°
Eccentric anomaly
Unknown
Mean motion
3.91995 °/min
Orbital period
91.84 mins
BSTAR
-0.015409
Loading maneuver chart data...
Loading SW <> Apogee altitude chart data...
Loading historical data...
Loading historical data...
Loading historical data...
Loading historical data...
Loading historical data...
Loading historical data...
Loading historical data...

STARLINK-34300 Visibility forecast

Observer location: undefined°, undefined°

Span
Click to sort rows by Start time (UTC) header in descending order
Start Az.
Max El. time (UTC)
Max El. Az.
Max El.
End time (UTC)
End Az.
4 mins2025-06-19 11:06:31.561Z306.35° NW2025-06-19 11:07:31.561Z256.013° W44.793°2025-06-19 11:10:31.561Z132.929° SE
4 mins2025-06-20 03:37:31.561Z202.305° SSW2025-06-20 03:38:31.561Z170.969° S35.946°2025-06-20 03:41:31.561Z60.629° ENE
|